Weather History for Fairbanks, AK

Change the Weather History Date:

Saturday, April 20, 2013

  Actual Average Record
Temperature  
Mean Temperature 24 °F 36 °F  
Max Temperature 43 °F 48 °F 64 °F (1999)
Min Temperature 5 °F 25 °F -6 °F (1937)
Degree Days  
Heating Degree Days 41 29  
Month to date heating degree days 1020 721  
Since 1 July heating degree days 13775 12771  
Cooling Degree Days 0 0  
Month to date cooling degree days 0 0  
Year to date cooling degree days 0 0  
Moisture  
Dew Point 7 °F    
Average Humidity 44    
Maximum Humidity 81    
Minimum Humidity 12    
Precipitation  
Precipitation 0.00 in 0.01 in 0.47 in (1979)
Month to date precipitation 0.31 0.17  
Year to date precipitation 1.84 1.42  
Snow  
Snow 0.00 in 0.10 in 5.50 in (1982)
Month to date snowfall 5.4 2.2  
Since 1 July snowfall 62.1 63.4  
Snow Depth 22.00 in    
Sea Level Pressure  
Sea Level Pressure 30.37 in    
Wind  
Wind Speed 2 mph (SSE)    
Max Wind Speed 7 mph    
Max Gust Speed -    
Visibility 10 miles    
Events      
T = Trace of Precipitation, MM = Missing Value Source: NWS Daily Summary

Daily Weather History Graph

Daily Weather History Graph

Search for Another Location

Airport:

Trip Planner

Search our weather history database for the weather conditions in past years. The results will help you decide how hot, cold, wet, or windy it might be!

Date:

Astronomy

Apr. 20, 2013 Rise Set
Actual Time 5:56 AM AKDT 9:45 PM AKDT
Civil Twilight 4:55 AM AKDT 10:48 PM AKDT
Nautical Twilight 3:12 AM AKDT 12:37 AM AKDT
Astronomical Twilight Sun does not rise Sun does not rise
Moon 2:51 PM AKDT (4/20) 4:47 AM AKDT (4/20)
Length of Visible Light 17h 52m
Length of Day
15h 49m
Waxing Gibbous, 72% of the Moon is Illuminated
Apr 20
Waxing Gibbous
Apr 25
Full
May 2
Last Quarter
May 9
New
May 17
First Quarter

Hourly Weather History & Observations

Time (AKDT) Temp. Windchill Dew Point Humidity Pressure Visibility Wind Dir Wind Speed Gust Speed Precip Events Conditions
12:53 AM 14.0 °F 6.5 °F 5.0 °F 67% 30.43 in 10.0 mi NE 4.6 mph - N/A   Clear
1:53 AM 19.9 °F 14.9 °F 5.0 °F 52% 30.43 in 10.0 mi NE 3.5 mph - N/A   Clear
2:53 AM 17.1 °F - 5.0 °F 59% 30.43 in 10.0 mi Calm Calm - N/A   Clear
3:53 AM 12.9 °F - 3.9 °F 67% 30.42 in 10.0 mi Calm Calm - N/A   Clear
4:53 AM 7.0 °F - 1.0 °F 77% 30.43 in 10.0 mi Calm Calm - N/A   Clear
5:53 AM 10.9 °F - 6.1 °F 81% 30.42 in 10.0 mi Calm Calm - N/A   Clear
6:53 AM 7.0 °F -1.7 °F 1.0 °F 77% 30.41 in 10.0 mi NE 4.6 mph - N/A   Clear
7:53 AM 12.0 °F 4.1 °F 3.9 °F 70% 30.40 in 10.0 mi NNE 4.6 mph - N/A   Clear
8:53 AM 19.0 °F 13.9 °F 6.1 °F 57% 30.40 in 10.0 mi NE 3.5 mph - N/A   Partly Cloudy
9:53 AM 27.0 °F - 8.1 °F 45% 30.39 in 10.0 mi Calm Calm - N/A   Partly Cloudy
10:53 AM 33.1 °F - 5.0 °F 31% 30.38 in 10.0 mi Calm Calm - N/A   Scattered Clouds
11:53 AM 37.0 °F - 6.1 °F 28% 30.38 in 10.0 mi Calm Calm - N/A   Scattered Clouds
12:53 PM 37.9 °F - 5.0 °F 25% 30.37 in 10.0 mi Calm Calm - N/A   Scattered Clouds
1:53 PM 39.9 °F - 6.1 °F 25% 30.36 in 10.0 mi Calm Calm - N/A   Scattered Clouds
2:53 PM 43.0 °F - 6.1 °F 22% 30.35 in 10.0 mi Calm Calm - N/A   Scattered Clouds
3:53 PM 41.0 °F - 6.1 °F 24% 30.34 in 10.0 mi Calm Calm - N/A   Partly Cloudy
4:53 PM 41.0 °F - 8.1 °F 26% 30.33 in 10.0 mi Calm Calm - N/A   Partly Cloudy
5:53 PM 42.1 °F 38.4 °F 9.0 °F 26% 30.31 in 10.0 mi SSW 5.8 mph - N/A   Partly Cloudy
6:53 PM 39.9 °F 35.1 °F 10.9 °F 31% 30.31 in 10.0 mi SSW 6.9 mph - N/A   Partly Cloudy
7:53 PM 39.9 °F 35.1 °F 12.9 °F 33% 30.30 in 10.0 mi SSW 6.9 mph - N/A   Partly Cloudy
8:53 PM 37.9 °F 33.5 °F 12.9 °F 36% 30.31 in 10.0 mi SSW 5.8 mph - N/A   Partly Cloudy
9:53 PM 30.9 °F 26.2 °F 14.0 °F 50% 30.32 in 10.0 mi SSW 4.6 mph - N/A   Partly Cloudy
10:53 PM 30.9 °F 26.2 °F 10.9 °F 43% 30.32 in 10.0 mi SSW 4.6 mph - N/A   Partly Cloudy
11:53 PM 25.0 °F - 10.0 °F 53% 30.33 in 10.0 mi Calm Calm - N/A   Partly Cloudy